| time (UTC) | temp F | wind direction | speed MPH | gust MPH | rain 1hr in | rain 24hr in | rain mn in | humidity % | barometer mb |
| 20260505001704 | 68 | 327 | 4.0 | 10.0 | 0.00 | 0.01 | 0.01 | 38 | 973.0 |
| 20260505001204 | 68 | 304 | 5.0 | 9.0 | 0.00 | 0.01 | 0.01 | 38 | 973.0 |
| 20260505000703 | 68 | 315 | 5.0 | 8.0 | 0.00 | 0.01 | 0.01 | 38 | 972.9 |
| 20260505000204 | 69 | 301 | 5.0 | 8.0 | 0.00 | 0.01 | 0.01 | 38 | 972.9 |
| 20260504234704 | 70 | 312 | 5.0 | 15.0 | 0.00 | 0.01 | 0.01 | 38 | 972.7 |
| 20260504234203 | 70 | 293 | 7.0 | 15.0 | 0.00 | 0.01 | 0.01 | 38 | 972.7 |
| 20260504233703 | 71 | 331 | 7.0 | 15.0 | 0.00 | 0.01 | 0.01 | 38 | 972.7 |
| 20260504233204 | 71 | 315 | 7.0 | 15.0 | 0.00 | 0.01 | 0.01 | 37 | 972.7 |
| 20260504231704 | 73 | 293 | 8.0 | 15.0 | 0.00 | 0.01 | 0.01 | 37 | 972.4 |
| 20260504231204 | 73 | 305 | 6.0 | 16.0 | 0.00 | 0.01 | 0.01 | 38 | 972.4 |
| 20260504230704 | 73 | 283 | 7.0 | 16.0 | 0.00 | 0.01 | 0.01 | 37 | 972.4 |
| 20260504230204 | 73 | 280 | 9.0 | 15.0 | 0.00 | 0.01 | 0.01 | 36 | 972.4 |
| 20260504224203 | 74 | 272 | 7.0 | 13.0 | 0.00 | 0.01 | 0.01 | 38 | 972.4 |
| 20260504223704 | 74 | 264 | 7.0 | 14.0 | 0.01 | 0.01 | 0.01 | 38 | 972.3 |
| 20260504223205 | 74 | 275 | 8.0 | 15.0 | 0.01 | 0.01 | 0.01 | 38 | 972.3 |
| 20260504221703 | 75 | 261 | 9.0 | 15.0 | 0.01 | 0.01 | 0.01 | 39 | 972.1 |
| 20260504221203 | 75 | 269 | 7.0 | 15.0 | 0.01 | 0.01 | 0.01 | 39 | 971.9 |
| 20260504220704 | 76 | 257 | 6.0 | 15.0 | 0.01 | 0.01 | 0.01 | 38 | 971.7 |
| 20260504220203 | 76 | 246 | 7.0 | 15.0 | 0.01 | 0.01 | 0.01 | 38 | 971.7 |
| 20260504214204 | 75 | 267 | 9.0 | 17.0 | 0.01 | 0.01 | 0.01 | 41 | 971.6 |
| 20260504213703 | 75 | 234 | 7.0 | 17.0 | 0.00 | 0.00 | 0.00 | 38 | 971.7 |
| 20260504213204 | 76 | 245 | 6.0 | 16.0 | 0.00 | 0.00 | 0.00 | 38 | 971.6 |
| 20260504211704 | 75 | 247 | 7.0 | 18.0 | 0.00 | 0.00 | 0.00 | 38 | 971.8 |
| 20260504211204 | 75 | 223 | 6.0 | 18.0 | 0.00 | 0.00 | 0.00 | 38 | 971.8 |
| 20260504210704 | 75 | 237 | 9.0 | 24.0 | 0.00 | 0.00 | 0.00 | 38 | 972.0 |
| 20260504210205 | 76 | 227 | 9.0 | 24.0 | 0.00 | 0.00 | 0.00 | 39 | 972.0 |
| 20260504204203 | 76 | 258 | 9.0 | 16.0 | 0.00 | 0.00 | 0.00 | 36 | 971.9 |
| 20260504203703 | 76 | 265 | 8.0 | 16.0 | 0.00 | 0.00 | 0.00 | 35 | 972.0 |
| 20260504203205 | 76 | 241 | 9.0 | 16.0 | 0.00 | 0.00 | 0.00 | 35 | 971.9 |
| 20260504201705 | 76 | 259 | 10.0 | 21.0 | 0.00 | 0.00 | 0.00 | 35 | 971.9 |
| 20260504201204 | 76 | 246 | 10.0 | 20.0 | 0.00 | 0.00 | 0.00 | 34 | 972.0 |
| 20260504200703 | 76 | 248 | 7.0 | 16.0 | 0.00 | 0.00 | 0.00 | 35 | 972.1 |
| 20260504200204 | 76 | 246 | 10.0 | 16.0 | 0.00 | 0.00 | 0.00 | 35 | 972.1 |
| 20260504194705 | 76 | 255 | 7.0 | 20.0 | 0.00 | 0.00 | 0.00 | 35 | 972.3 |
| 20260504194203 | 76 | 243 | 9.0 | 20.0 | 0.00 | 0.00 | 0.00 | 34 | 972.3 |
| 20260504193704 | 76 | 248 | 6.0 | 15.0 | 0.00 | 0.00 | 0.00 | 34 | 972.4 |
| 20260504193204 | 76 | 254 | 9.0 | 21.0 | 0.00 | 0.00 | 0.00 | 34 | 972.2 |
| 20260504191705 | 76 | 259 | 8.0 | 21.0 | 0.00 | 0.00 | 0.00 | 35 | 972.4 |
| 20260504191205 | 76 | 248 | 9.0 | 21.0 | 0.00 | 0.00 | 0.00 | 34 | 972.3 |
| 20260504190703 | 76 | 244 | 11.0 | 16.0 | 0.00 | 0.00 | 0.00 | 33 | 972.3 |
| 20260504190203 | 77 | 246 | 10.0 | 22.0 | 0.00 | 0.00 | 0.00 | 33 | 972.4 |
| 20260504184703 | 76 | 252 | 9.0 | 28.0 | 0.00 | 0.00 | 0.00 | 34 | 972.5 |
| 20260504184204 | 76 | 254 | 12.0 | 28.0 | 0.00 | 0.00 | 0.00 | 33 | 972.5 |
| 20260504183705 | 76 | 238 | 12.0 | 23.0 | 0.00 | 0.00 | 0.00 | 34 | 972.4 |
| 20260504183204 | 76 | 245 | 11.0 | 23.0 | 0.00 | 0.00 | 0.00 | 34 | 972.4 |
| 20260504181704 | 76 | 249 | 12.0 | 28.0 | 0.00 | 0.00 | 0.00 | 33 | 972.7 |
| 20260504181204 | 76 | 243 | 13.0 | 28.0 | 0.00 | 0.00 | 0.00 | 34 | 972.8 |
| 20260504180705 | 76 | 243 | 9.0 | 16.0 | 0.00 | 0.00 | 0.00 | 34 | 972.6 |
| 20260504180204 | 76 | 255 | 7.0 | 18.0 | 0.00 | 0.00 | 0.00 | 34 | 972.5 |
| 20260504174705 | 76 | 250 | 6.0 | 14.0 | 0.00 | 0.00 | 0.00 | 35 | 972.7 |
| 20260504174205 | 75 | 231 | 6.0 | 14.0 | 0.00 | 0.00 | 0.00 | 35 | 972.7 |
| 20260504173703 | 75 | 238 | 8.0 | 16.0 | 0.00 | 0.00 | 0.00 | 35 | 972.7 |
| 20260504173204 | 75 | 251 | 6.0 | 16.0 | 0.00 | 0.00 | 0.00 | 35 | 973.0 |
| 20260504171703 | 74 | 218 | 7.0 | 21.0 | 0.00 | 0.00 | 0.00 | 34 | 972.9 |
| 20260504171205 | 74 | 244 | 11.0 | 21.0 | 0.00 | 0.00 | 0.00 | 34 | 973.0 |
| 20260504170705 | 74 | 234 | 6.0 | 14.0 | 0.00 | 0.00 | 0.00 | 36 | 973.2 |
| 20260504170203 | 74 | 228 | 6.0 | 15.0 | 0.00 | 0.00 | 0.00 | 36 | 973.1 |
| 20260504160204 | 58 | 159 | 3.0 | 9.0 | 0.00 | 0.00 | 0.00 | 60 | 974.2 |
| 20260504150203 | 57 | 193 | 3.0 | 9.0 | 0.00 | 0.00 | 0.00 | 63 | 975.1 |
| 20260504141205 | 56 | 159 | 2.0 | 8.0 | 0.00 | 0.00 | 0.00 | 67 | 975.8 |
| 20260504140703 | 57 | 171 | 2.0 | 8.0 | 0.00 | 0.00 | 0.00 | 66 | 975.9 |
| 20260504140203 | 57 | 218 | 3.0 | 8.0 | 0.00 | 0.00 | 0.00 | 65 | 976.0 |
| 20260504130704 | 55 | 223 | 5.0 | 8.0 | 0.00 | 0.00 | 0.00 | 68 | 976.7 |
| 20260504120205 | 51 | 143 | 2.0 | 3.0 | 0.00 | 0.00 | 0.00 | 73 | 977.0 |
| 20260504110204 | 42 | 231 | 1.0 | 3.0 | 0.00 | 0.00 | 0.00 | 93 | 977.4 |
| 20260504034703 | 46 | 242 | 1.0 | 2.0 | 0.00 | 0.00 | 0.00 | 92 | 980.5 |
| 20260504033704 | 46 | 247 | 1.0 | 3.0 | 0.00 | 0.00 | 0.00 | 92 | 980.6 |
| 20260504031704 | 46 | 213 | 1.0 | 2.0 | 0.00 | 0.00 | 0.00 | 92 | 980.6 |
| 20260504031204 | 46 | 237 | 2.0 | 3.0 | 0.00 | 0.00 | 0.00 | 92 | 980.6 |
| 20260504030704 | 46 | 242 | 1.0 | 5.0 | 0.00 | 0.00 | 0.00 | 92 | 980.6 |
| 20260504030204 | 46 | 228 | 2.0 | 5.0 | 0.00 | 0.00 | 0.00 | 92 | 980.7 |
| 20260504024703 | 45 | 81 | 1.0 | 3.0 | 0.00 | 0.00 | 0.00 | 92 | 980.6 |
| 20260504024203 | 46 | 221 | 1.0 | 3.0 | 0.00 | 0.00 | 0.00 | 91 | 980.6 |
| 20260504023703 | 46 | 237 | 2.0 | 3.0 | 0.00 | 0.00 | 0.00 | 91 | 980.6 |
| 20260504023204 | 46 | 234 | 2.0 | 3.0 | 0.00 | 0.00 | 0.00 | 91 | 980.6 |
| 20260504021703 | 46 | 198 | 2.0 | 5.0 | 0.00 | 0.00 | 0.00 | 90 | 980.6 |
| 20260504021204 | 46 | 248 | 2.0 | 5.0 | 0.00 | 0.00 | 0.00 | 89 | 980.6 |
| 20260504020205 | 46 | 216 | 2.0 | 6.0 | 0.00 | 0.00 | 0.00 | 89 | 980.5 |
| 20260504013705 | 45 | 235 | 3.0 | 6.0 | 0.00 | 0.00 | 0.00 | 88 | 980.3 |
| 20260504013203 | 45 | 221 | 3.0 | 6.0 | 0.00 | 0.00 | 0.00 | 88 | 980.3 |
| 20260504011204 | 45 | 228 | 3.0 | 8.0 | 0.00 | 0.00 | 0.00 | 88 | 980.2 |
| 20260504010203 | 45 | 228 | 3.0 | 8.0 | 0.00 | 0.00 | 0.00 | 88 | 980.1 |
| 20260504004205 | 45 | 213 | 3.0 | 7.0 | 0.00 | 0.00 | 0.00 | 87 | 980.2 |
| 20260504003704 | 46 | 225 | 3.0 | 8.0 | 0.00 | 0.00 | 0.00 | 86 | 980.2 |